QPF
0.00 0.00 0.00 0.00 0.00 0.00 0.00 0.00 0.02 0.01 0.01 0.00 0.00 0.00 0.00 0.00 0.00 0.00 0.00 0.00 0.00 0.00 0.00 0.00 0.00 0.00 0.00 0.00 0.00 0.00 0.00 0.01 0.00 0.01 0.01 0.01 0.01 0.02 0.02 0.02 0.01 0.01 0.01 0.00
0.00 0.00 0.00 0.00 0.00 0.00 0.00 0.01 0.01 0.01 0.01 0.00 0.00 0.00 0.00 0.01 0.01 0.01 0.01 0.01 0.01 0.01 0.01 0.01 0.01 0.00 0.00 0.00 0.00 0.00 0.00 0.00 0.00 0.00 0.00 0.00 0.01 0.02 0.03 0.03 0.03 0.03 0.02 0.01
0.00 0.00 0.00 0.01 0.00 0.00 0.01 0.01 0.01 0.01 0.01 0.00 0.01 0.01 0.02 0.02 0.02 0.02 0.01 0.01 0.01 0.01 0.01 0.01 0.00 0.00 0.00 0.00 0.00 0.00 0.00 0.00 0.00 0.00 0.00 0.01 0.01 0.02 0.03 0.04 0.05 0.04 0.04 0.03
0.00 0.01 0.02 0.01 0.00 0.00 0.00 0.00 0.00 0.01 0.01 0.01 0.02 0.02 0.03 0.03 0.02 0.01 0.00 0.00 0.00 0.00 0.00 0.00 0.00 0.00 0.00 0.00 0.00 0.00 0.00 0.00 0.00 0.00 0.00 0.01 0.02 0.02 0.04 0.05 0.05 0.05 0.05 0.04
0.00 0.00 0.01 0.00 0.00 0.00 0.01 0.01 0.01 0.01 0.01 0.01 0.01 0.01 0.01 0.01 0.00 0.00 0.00 0.00 0.00 0.00 0.00 0.00 0.00 0.00 0.00 0.00 0.00 0.00 0.00 0.00 0.00 0.00 0.01 0.01 0.02 0.03 0.04 0.06 0.06 0.06 0.06 0.05
0.00 0.00 0.01 0.01 0.00 0.00 0.01 0.03 0.02 0.01 0.01 0.00 0.00 0.00 0.00 0.00 0.00 0.00 0.00 0.00 0.00 0.00 0.00 0.00 0.00 0.00 0.00 0.00 0.00 0.00 0.00 0.00 0.00 0.00 0.01 0.01 0.02 0.04 0.05 0.08 0.09 0.10 0.09 0.08
0.00 0.00 0.00 0.00 0.00 0.00 0.01 0.02 0.00 0.00 0.00 0.00 0.00 0.00 0.00 0.00 0.00 0.00 0.00 0.00 0.00 0.00 0.00 0.00 0.00 0.00 0.00 0.00 0.00 0.00 0.00 0.00 0.00 0.00 0.01 0.02 0.03 0.04 0.07 0.11 0.14 0.15 0.14 0.12
0.00 0.01 0.01 0.00 0.00 0.00 0.00 0.00 0.00 0.00 0.00 0.00 0.00 0.00 0.00 0.00 0.00 0.00 0.00 0.00 0.00 0.00 0.00 0.00 0.00 0.00 0.00 0.00 0.00 0.00 0.01 0.01 0.00 0.01 0.01 0.01 0.02 0.04 0.08 0.13 0.19 0.21 0.21 0.19
0.00 0.01 0.00 0.00 0.00 0.00 0.00 0.00 0.00 0.00 0.00 0.00 0.00 0.00 0.00 0.00 0.00 0.00 0.00 0.00 0.00 0.00 0.00 0.00 0.00 0.00 0.01 0.01 0.01 0.01 0.01 0.01 0.01 0.01 0.01 0.02 0.04 0.05 0.08 0.13 0.21 0.25 0.26 0.27
0.00 0.00 0.00 0.00 0.00 0.00 0.00 0.00 0.00 0.00 0.00 0.00 0.00 0.00 0.00 0.00 0.00 0.00 0.00 0.00 0.00 0.00 0.00 0.00 0.00 0.00 0.01 0.01 0.01 0.02 0.02 0.02 0.02 0.02 0.02 0.02 0.04 0.07 0.10 0.15 0.24 0.29 0.30 0.30
0.00 0.00 0.00 0.00 0.00 0.00 0.00 0.00 0.00 0.00 0.00 0.00 0.00 0.00 0.00 0.00 0.00 0.00 0.00 0.00 0.00 0.00 0.00 0.00 0.01 0.01 0.01 0.02 0.03 0.03 0.03 0.03 0.03 0.03 0.03 0.03 0.04 0.07 0.10 0.15 0.23 0.30 0.32 0.32
0.00 0.00 0.00 0.00 0.00 0.00 0.00 0.00 0.00 0.00 0.00 0.00 0.00 0.00 0.00 0.00 0.00 0.00 0.00 0.00 0.00 0.01 0.01 0.01 0.01 0.01 0.01 0.02 0.03 0.04 0.03 0.03 0.03 0.03 0.03 0.04 0.05 0.06 0.09 0.14 0.20 0.25 0.30 0.33
0.00 0.00 0.00 0.00 0.00 0.00 0.00 0.00 0.00 0.00 0.00 0.00 0.00 0.00 0.00 0.00 0.00 0.00 0.00 0.00 0.01 0.02 0.02 0.02 0.02 0.02 0.02 0.02 0.03 0.04 0.04 0.03 0.03 0.03 0.03 0.05 0.07 0.08 0.11 0.14 0.20 0.24 0.28 0.31
0.00 0.00 0.00 0.00 0.00 0.00 0.00 0.00 0.00 0.00 0.00 0.00 0.00 0.00 0.00 0.00 0.00 0.00 0.00 0.01 0.02 0.03 0.03 0.03 0.03 0.02 0.02 0.03 0.04 0.04 0.04 0.04 0.04 0.04 0.05 0.06 0.07 0.11 0.15 0.17 0.21 0.26 0.29 0.31
0.00 0.00 0.00 0.00 0.00 0.00 0.00 0.00 0.00 0.00 0.00 0.00 0.00 0.00 0.00 0.00 0.00 0.00 0.01 0.02 0.03 0.04 0.04 0.04 0.03 0.03 0.03 0.04 0.05 0.05 0.05 0.05 0.05 0.05 0.05 0.06 0.09 0.13 0.17 0.19 0.24 0.28 0.31 0.30
0.00 0.00 0.00 0.00 0.00 0.00 0.00 0.00 0.00 0.00 0.00 0.00 0.00 0.00 0.00 0.00 0.01 0.01 0.02 0.02 0.05 0.07 0.06 0.05 0.04 0.04 0.04 0.04 0.06 0.06 0.05 0.05 0.06 0.06 0.06 0.07 0.10 0.14 0.18 0.19 0.24 0.31 0.32 0.28
0.00 0.00 0.00 0.00 0.00 0.00 0.00 0.00 0.00 0.00 0.00 0.00 0.00 0.00 0.00 0.01 0.01 0.01 0.02 0.02 0.05 0.07 0.08 0.07 0.06 0.06 0.06 0.07 0.08 0.08 0.07 0.06 0.06 0.06 0.06 0.08 0.11 0.16 0.20 0.20 0.21 0.27 0.31 0.26
0.00 0.00 0.00 0.00 0.00 0.00 0.00 0.00 0.00 0.00 0.00 0.00 0.00 0.00 0.01 0.02 0.02 0.02 0.02 0.03 0.05 0.06 0.07 0.08 0.07 0.07 0.08 0.09 0.10 0.10 0.08 0.07 0.06 0.06 0.06 0.08 0.10 0.16 0.19 0.19 0.20 0.23 0.27 0.24
0.00 0.00 0.00 0.00 0.00 0.00 0.00 0.00 0.00 0.00 0.00 0.00 0.00 0.01 0.02 0.02 0.03 0.03 0.03 0.05 0.08 0.10 0.09 0.08 0.09 0.10 0.09 0.09 0.10 0.09 0.07 0.06 0.06 0.05 0.06 0.07 0.10 0.15 0.17 0.18 0.20 0.21 0.24 0.19
0.00 0.00 0.00 0.00 0.00 0.00 0.00 0.00 0.00 0.00 0.00 0.00 0.00 0.01 0.02 0.02 0.03 0.04 0.05 0.05 0.08 0.11 0.11 0.10 0.10 0.10 0.09 0.09 0.09 0.08 0.07 0.06 0.05 0.04 0.05 0.07 0.11 0.16 0.16 0.16 0.17 0.19 0.19 0.14
0.00 0.00 0.00 0.00 0.00 0.00 0.00 0.00 0.00 0.00 0.00 0.00 0.00 0.01 0.02 0.03 0.04 0.05 0.08 0.08 0.08 0.10 0.12 0.11 0.11 0.10 0.08 0.08 0.07 0.07 0.06 0.05 0.04 0.04 0.05 0.07 0.10 0.13 0.13 0.13 0.14 0.15 0.13 0.11
0.00 0.00 0.00 0.00 0.00 0.00 0.00 0.00 0.00 0.00 0.00 0.00 0.00 0.02 0.03 0.05 0.06 0.07 0.08 0.09 0.11 0.14 0.14 0.12 0.12 0.11 0.09 0.08 0.07 0.06 0.06 0.05 0.04 0.04 0.04 0.06 0.08 0.10 0.10 0.11 0.12 0.11 0.08 0.07
0.00 0.00 0.00 0.00 0.00 0.00 0.00 0.00 0.00 0.00 0.00 0.00 0.01 0.02 0.05 0.08 0.10 0.13 0.13 0.10 0.12 0.16 0.15 0.14 0.12 0.11 0.10 0.07 0.06 0.06 0.06 0.04 0.03 0.03 0.03 0.05 0.06 0.07 0.08 0.10 0.10 0.08 0.05 0.04
0.00 0.00 0.00 0.00 0.00 0.00 0.00 0.00 0.00 0.00 0.00 0.00 0.01 0.02 0.06 0.11 0.11 0.12 0.13 0.13 0.15 0.16 0.14 0.13 0.11 0.11 0.09 0.07 0.06 0.05 0.04 0.03 0.03 0.02 0.03 0.04 0.06 0.06 0.08 0.09 0.08 0.07 0.05 0.03
0.00 0.00 0.00 0.00 0.00 0.00 0.00 0.00 0.00 0.00 0.01 0.01 0.01 0.01 0.05 0.10 0.12 0.12 0.11 0.12 0.15 0.16 0.15 0.11 0.09 0.09 0.07 0.05 0.04 0.03 0.03 0.02 0.02 0.02 0.03 0.04 0.05 0.06 0.07 0.07 0.06 0.06 0.05 0.03
0.00 0.00 0.00 0.00 0.00 0.00 0.00 0.00 0.00 0.01 0.01 0.01 0.01 0.02 0.04 0.07 0.08 0.08 0.09 0.11 0.12 0.14 0.14 0.10 0.07 0.06 0.05 0.06 0.05 0.04 0.03 0.03 0.03 0.03 0.03 0.04 0.05 0.06 0.05 0.05 0.05 0.05 0.04 0.02
0.00 0.00 0.00 0.00 0.00 0.00 0.00 0.00 0.01 0.01 0.01 0.02 0.02 0.02 0.04 0.07 0.07 0.07 0.08 0.11 0.11 0.11 0.12 0.11 0.08 0.06 0.05 0.05 0.06 0.06 0.06 0.05 0.05 0.05 0.05 0.05 0.05 0.04 0.04 0.04 0.04 0.04 0.03 0.01
MSLP
1012.25 1012.36 1012.57 1012.87 1013.25 1013.69 1014.15 1014.59 1015.00 1015.35 1015.63 1015.84 1015.98 1016.06 1016.10 1016.10 1016.07 1015.99 1015.86 1015.66 1015.39 1015.04 1014.62 1014.13 1013.61 1013.07 1012.54 1012.03 1011.55 1011.12 1010.72 1010.34 1009.96 1009.58 1009.18 1008.75 1008.31 1007.86 1007.42 1007.02 1006.69 1006.43 1006.26 1006.17
1012.65 1012.86 1013.15 1013.52 1013.95 1014.42 1014.89 1015.34 1015.73 1016.04 1016.27 1016.40 1016.45 1016.43 1016.36 1016.24 1016.09 1015.90 1015.68 1015.41 1015.08 1014.71 1014.27 1013.79 1013.28 1012.74 1012.21 1011.69 1011.19 1010.73 1010.29 1009.88 1009.48 1009.09 1008.69 1008.28 1007.86 1007.45 1007.05 1006.68 1006.37 1006.13 1005.96 1005.87
1013.22 1013.53 1013.90 1014.33 1014.80 1015.29 1015.75 1016.16 1016.50 1016.73 1016.85 1016.87 1016.79 1016.63 1016.42 1016.16 1015.88 1015.57 1015.25 1014.91 1014.55 1014.15 1013.72 1013.25 1012.75 1012.23 1011.71 1011.19 1010.68 1010.20 1009.74 1009.31 1008.90 1008.51 1008.12 1007.73 1007.35 1006.98 1006.62 1006.29 1006.00 1005.76 1005.60 1005.50
1013.93 1014.31 1014.75 1015.22 1015.71 1016.17 1016.59 1016.93 1017.17 1017.29 1017.28 1017.16 1016.92 1016.61 1016.25 1015.85 1015.44 1015.03 1014.63 1014.23 1013.84 1013.43 1013.00 1012.55 1012.08 1011.59 1011.08 1010.57 1010.06 1009.57 1009.11 1008.67 1008.25 1007.86 1007.49 1007.13 1006.78 1006.44 1006.12 1005.81 1005.53 1005.30 1005.13 1005.02
1014.71 1015.14 1015.60 1016.08 1016.54 1016.95 1017.29 1017.53 1017.64 1017.62 1017.47 1017.19 1016.81 1016.35 1015.85 1015.34 1014.82 1014.33 1013.87 1013.43 1013.01 1012.60 1012.19 1011.77 1011.32 1010.85 1010.37 1009.87 1009.37 1008.89 1008.42 1007.98 1007.57 1007.19 1006.83 1006.49 1006.17 1005.85 1005.55 1005.25 1004.98 1004.74 1004.56 1004.43
1015.49 1015.93 1016.38 1016.81 1017.20 1017.52 1017.75 1017.85 1017.82 1017.66 1017.36 1016.94 1016.43 1015.86 1015.26 1014.65 1014.07 1013.52 1013.02 1012.56 1012.14 1011.74 1011.34 1010.93 1010.51 1010.07 1009.61 1009.13 1008.65 1008.17 1007.72 1007.29 1006.88 1006.51 1006.17 1005.84 1005.53 1005.23 1004.93 1004.64 1004.37 1004.12 1003.92 1003.78
1016.21 1016.61 1017.00 1017.35 1017.63 1017.82 1017.91 1017.87 1017.69 1017.38 1016.96 1016.43 1015.82 1015.17 1014.50 1013.85 1013.23 1012.66 1012.14 1011.68 1011.25 1010.86 1010.47 1010.08 1009.67 1009.25 1008.81 1008.35 1007.89 1007.44 1007.00 1006.59 1006.20 1005.84 1005.51 1005.20 1004.89 1004.60 1004.30 1004.01 1003.74 1003.49 1003.29 1003.15
1016.81 1017.14 1017.42 1017.65 1017.80 1017.85 1017.78 1017.58 1017.27 1016.84 1016.30 1015.69 1015.02 1014.33 1013.64 1012.97 1012.35 1011.78 1011.26 1010.80 1010.37 1009.97 1009.59 1009.20 1008.80 1008.39 1007.97 1007.53 1007.10 1006.67 1006.26 1005.87 1005.51 1005.17 1004.85 1004.55 1004.26 1003.97 1003.68 1003.40 1003.13 1002.89 1002.70 1002.58
1017.25 1017.48 1017.65 1017.74 1017.73 1017.62 1017.40 1017.06 1016.62 1016.08 1015.47 1014.81 1014.11 1013.41 1012.72 1012.07 1011.46 1010.90 1010.39 1009.93 1009.50 1009.09 1008.69 1008.29 1007.89 1007.48 1007.07 1006.66 1006.25 1005.85 1005.48 1005.12 1004.79 1004.48 1004.18 1003.90 1003.62 1003.34 1003.07 1002.80 1002.56 1002.34 1002.19 1002.10
1017.53 1017.65 1017.69 1017.63 1017.48 1017.21 1016.85 1016.38 1015.83 1015.22 1014.55 1013.86 1013.16 1012.47 1011.81 1011.18 1010.60 1010.05 1009.55 1009.07 1008.62 1008.19 1007.77 1007.35 1006.93 1006.52 1006.11 1005.71 1005.34 1004.97 1004.64 1004.32 1004.02 1003.74 1003.47 1003.20 1002.94 1002.68 1002.43 1002.20 1001.99 1001.82 1001.72 1001.69
1017.64 1017.66 1017.57 1017.39 1017.09 1016.69 1016.20 1015.63 1015.00 1014.33 1013.63 1012.93 1012.24 1011.58 1010.95 1010.35 1009.78 1009.25 1008.73 1008.24 1007.76 1007.29 1006.83 1006.38 1005.94 1005.51 1005.11 1004.73 1004.37 1004.05 1003.74 1003.46 1003.20 1002.94 1002.69 1002.45 1002.21 1001.97 1001.75 1001.55 1001.40 1001.29 1001.25 1001.30
1017.63 1017.55 1017.36 1017.05 1016.65 1016.14 1015.55 1014.90 1014.21 1013.50 1012.79 1012.10 1011.43 1010.79 1010.18 1009.60 1009.05 1008.50 1007.97 1007.45 1006.93 1006.41 1005.90 1005.41 1004.94 1004.51 1004.10 1003.74 1003.40 1003.10 1002.83 1002.58 1002.33 1002.10 1001.86 1001.63 1001.40 1001.18 1000.98 1000.83 1000.72 1000.68 1000.72 1000.84
1017.52 1017.36 1017.08 1016.68 1016.18 1015.60 1014.94 1014.24 1013.51 1012.79 1012.07 1011.39 1010.74 1010.12 1009.53 1008.95 1008.39 1007.83 1007.27 1006.71 1006.14 1005.57 1005.02 1004.49 1004.00 1003.55 1003.15 1002.79 1002.48 1002.20 1001.94 1001.70 1001.47 1001.23 1001.00 1000.76 1000.53 1000.32 1000.14 1000.01 999.95 999.96 1000.07 1000.26
1017.34 1017.11 1016.76 1016.30 1015.74 1015.10 1014.40 1013.67 1012.93 1012.19 1011.49 1010.82 1010.18 1009.57 1008.98 1008.41 1007.83 1007.24 1006.64 1006.03 1005.42 1004.81 1004.21 1003.66 1003.15 1002.69 1002.29 1001.94 1001.64 1001.37 1001.13 1000.89 1000.65 1000.40 1000.14 999.88 999.64 999.41 999.24 999.12 999.09 999.15 999.30 999.55
1017.12 1016.83 1016.43 1015.92 1015.32 1014.65 1013.93 1013.19 1012.44 1011.72 1011.02 1010.36 1009.74 1009.13 1008.54 1007.94 1007.34 1006.72 1006.07 1005.42 1004.76 1004.11 1003.49 1002.91 1002.39 1001.94 1001.54 1001.21 1000.92 1000.66 1000.42 1000.17 999.91 999.63 999.35 999.05 998.77 998.52 998.33 998.22 998.20 998.28 998.47 998.75
1016.87 1016.54 1016.10 1015.56 1014.93 1014.24 1013.52 1012.78 1012.05 1011.33 1010.65 1010.00 1009.37 1008.76 1008.15 1007.53 1006.89 1006.22 1005.54 1004.84 1004.14 1003.46 1002.83 1002.24 1001.73 1001.28 1000.91 1000.59 1000.32 1000.07 999.82 999.56 999.28 998.97 998.64 998.31 997.99 997.71 997.50 997.37 997.35 997.43 997.64 997.95
1016.62 1016.25 1015.78 1015.21 1014.57 1013.88 1013.16 1012.43 1011.71 1011.01 1010.34 1009.69 1009.05 1008.42 1007.79 1007.12 1006.44 1005.72 1004.99 1004.25 1003.52 1002.82 1002.18 1001.60 1001.10 1000.68 1000.33 1000.04 999.79 999.55 999.31 999.05 998.75 998.42 998.06 997.69 997.34 997.03 996.79 996.65 996.61 996.70 996.91 997.23
1016.38 1015.97 1015.47 1014.89 1014.24 1013.55 1012.83 1012.12 1011.41 1010.72 1010.05 1009.39 1008.74 1008.08 1007.40 1006.69 1005.95 1005.18 1004.40 1003.61 1002.85 1002.14 1001.49 1000.93 1000.45 1000.06 999.75 999.50 999.28 999.07 998.85 998.59 998.29 997.95 997.58 997.20 996.83 996.50 996.25 996.10 996.06 996.14 996.35 996.66
1016.16 1015.73 1015.21 1014.61 1013.95 1013.26 1012.55 1011.84 1011.14 1010.45 1009.78 1009.10 1008.42 1007.71 1006.98 1006.20 1005.40 1004.57 1003.73 1002.90 1002.11 1001.38 1000.73 1000.18 999.74 999.38 999.11 998.91 998.73 998.56 998.37 998.14 997.87 997.54 997.18 996.81 996.44 996.13 995.88 995.73 995.70 995.78 995.99 996.31
1015.98 1015.52 1014.98 1014.37 1013.71 1013.02 1012.31 1011.61 1010.91 1010.22 1009.52 1008.82 1008.09 1007.33 1006.53 1005.68 1004.80 1003.90 1003.00 1002.12 1001.30 1000.55 999.90 999.36 998.94 998.63 998.40 998.24 998.11 997.99 997.85 997.66 997.43 997.14 996.82 996.48 996.15 995.86 995.64 995.52 995.50 995.60 995.82 996.13
1015.83 1015.35 1014.80 1014.18 1013.52 1012.83 1012.13 1011.43 1010.73 1010.02 1009.31 1008.57 1007.79 1006.96 1006.09 1005.17 1004.21 1003.24 1002.27 1001.34 1000.47 999.70 999.05 998.52 998.11 997.82 997.63 997.52 997.44 997.36 997.27 997.13 996.95 996.72 996.45 996.16 995.89 995.65 995.48 995.39 995.41 995.53 995.75 996.07
1015.70 1015.21 1014.66 1014.04 1013.39 1012.71 1012.02 1011.32 1010.61 1009.90 1009.16 1008.38 1007.55 1006.67 1005.73 1004.74 1003.71 1002.66 1001.63 1000.64 999.74 998.94 998.27 997.73 997.33 997.06 996.90 996.81 996.76 996.72 996.67 996.59 996.46 996.28 996.07 995.84 995.63 995.45 995.33 995.29 995.35 995.49 995.73 996.05
1015.57 1015.09 1014.54 1013.94 1013.30 1012.63 1011.96 1011.27 1010.58 1009.86 1009.10 1008.30 1007.44 1006.51 1005.51 1004.46 1003.37 1002.27 1001.18 1000.15 999.21 998.38 997.68 997.13 996.73 996.46 996.29 996.21 996.18 996.16 996.13 996.08 995.99 995.85 995.69 995.52 995.36 995.24 995.17 995.18 995.27 995.44 995.70 996.02
1015.44 1014.97 1014.44 1013.85 1013.24 1012.60 1011.96 1011.30 1010.62 1009.92 1009.17 1008.36 1007.48 1006.53 1005.50 1004.41 1003.29 1002.15 1001.02 999.96 998.99 998.13 997.41 996.84 996.42 996.12 995.94 995.84 995.80 995.77 995.74 995.69 995.61 995.50 995.37 995.24 995.12 995.04 995.01 995.06 995.17 995.37 995.64 995.96
1015.28 1014.83 1014.33 1013.78 1013.20 1012.61 1012.00 1011.39 1010.75 1010.08 1009.36 1008.57 1007.70 1006.75 1005.73 1004.63 1003.50 1002.35 1001.22 1000.14 999.16 998.28 997.54 996.95 996.49 996.16 995.94 995.80 995.72 995.65 995.59 995.52 995.42 995.31 995.18 995.06 994.96 994.90 994.90 994.97 995.10 995.31 995.59 995.92
1015.10 1014.68 1014.21 1013.70 1013.17 1012.64 1012.09 1011.54 1010.96 1010.34 1009.67 1008.92 1008.10 1007.19 1006.19 1005.13 1004.02 1002.90 1001.79 1000.72 999.74 998.86 998.11 997.49 997.00 996.62 996.35 996.15 996.00 995.88 995.76 995.64 995.50 995.36 995.21 995.08 994.98 994.93 994.93 995.01 995.16 995.37 995.65 995.98
1014.93 1014.54 1014.10 1013.64 1013.17 1012.69 1012.22 1011.73 1011.22 1010.68 1010.07 1009.40 1008.64 1007.80 1006.87 1005.87 1004.82 1003.75 1002.68 1001.65 1000.70 999.83 999.08 998.44 997.92 997.50 997.17 996.90 996.68 996.48 996.30 996.11 995.91 995.72 995.54 995.39 995.27 995.21 995.21 995.29 995.44 995.66 995.94 996.28
Thickness
5742 5744 5738 5728 5722 5720 5713 5708 5700 5698 5688 5671 5661 5654 5650 5645 5641 5637 5634 5630 5627 5625 5624 5623 5622 5621 5621 5620 5620 5619 5619 5620 5620 5622 5626 5629 5632 5636 5640 5643 5647 5648 5649 5650
5732 5737 5732 5717 5709 5705 5698 5691 5688 5681 5665 5657 5650 5643 5636 5629 5624 5622 5619 5617 5615 5613 5611 5609 5608 5606 5605 5604 5603 5602 5602 5603 5604 5605 5608 5611 5615 5619 5624 5628 5633 5636 5638 5640
5726 5728 5718 5700 5685 5684 5679 5674 5669 5661 5649 5642 5635 5628 5623 5619 5615 5612 5609 5606 5603 5600 5597 5594 5592 5589 5586 5585 5584 5582 5582 5583 5585 5586 5589 5592 5597 5601 5606 5611 5617 5621 5626 5629
5722 5715 5692 5675 5681 5673 5664 5660 5655 5645 5636 5629 5623 5621 5618 5615 5609 5603 5597 5593 5588 5584 5580 5577 5574 5570 5567 5565 5562 5562 5562 5563 5564 5566 5568 5572 5576 5581 5586 5593 5599 5605 5611 5617
5711 5705 5685 5669 5665 5657 5649 5647 5643 5631 5626 5623 5620 5615 5617 5611 5599 5589 5582 5576 5571 5566 5562 5557 5553 5550 5547 5544 5543 5542 5542 5543 5544 5546 5548 5551 5555 5561 5567 5573 5581 5589 5596 5603
5700 5686 5679 5653 5657 5654 5643 5635 5629 5624 5617 5612 5606 5600 5601 5593 5582 5575 5568 5561 5554 5549 5545 5540 5536 5532 5529 5528 5527 5527 5527 5527 5528 5529 5531 5535 5539 5544 5550 5556 5564 5572 5581 5589
5686 5679 5663 5653 5653 5649 5632 5626 5620 5613 5606 5599 5592 5584 5582 5577 5569 5560 5552 5546 5540 5536 5532 5528 5524 5521 5519 5518 5517 5517 5517 5517 5518 5519 5520 5524 5528 5532 5536 5542 5549 5557 5567 5576
5674 5663 5650 5648 5644 5630 5621 5618 5610 5604 5597 5590 5582 5577 5570 5562 5554 5547 5540 5535 5530 5525 5523 5520 5517 5514 5513 5512 5511 5510 5510 5510 5511 5512 5513 5518 5521 5523 5527 5531 5537 5545 5554 5564
5659 5653 5646 5641 5631 5625 5617 5608 5601 5595 5588 5579 5572 5565 5557 5549 5542 5537 5531 5527 5523 5520 5518 5516 5512 5509 5508 5508 5506 5505 5505 5505 5505 5507 5508 5510 5513 5517 5520 5525 5530 5537 5544 5552
5650 5648 5641 5634 5627 5619 5610 5600 5593 5585 5577 5568 5559 5552 5545 5539 5534 5529 5525 5521 5518 5515 5513 5512 5509 5506 5504 5504 5502 5500 5500 5500 5501 5503 5504 5507 5509 5513 5517 5521 5525 5531 5536 5543
5644 5640 5633 5629 5618 5609 5601 5593 5585 5577 5567 5557 5549 5542 5536 5531 5528 5524 5520 5517 5514 5511 5509 5507 5505 5503 5501 5499 5497 5496 5497 5497 5498 5499 5501 5503 5506 5509 5512 5516 5518 5522 5529 5535
5636 5629 5619 5615 5609 5602 5593 5584 5576 5567 5559 5550 5540 5534 5530 5526 5523 5519 5516 5514 5511 5508 5505 5503 5501 5499 5498 5496 5493 5492 5492 5493 5494 5496 5497 5499 5501 5505 5508 5509 5511 5513 5517 5523
5630 5624 5616 5609 5603 5595 5585 5577 5568 5559 5550 5543 5536 5529 5524 5522 5519 5516 5513 5510 5507 5504 5502 5499 5497 5496 5495 5493 5490 5488 5488 5488 5489 5490 5491 5493 5495 5498 5502 5506 5507 5509 5512 5518
5624 5616 5608 5602 5595 5587 5579 5571 5563 5554 5545 5537 5531 5526 5521 5518 5516 5512 5509 5506 5503 5500 5497 5495 5493 5492 5490 5488 5486 5484 5484 5484 5483 5484 5485 5487 5491 5494 5498 5503 5509 5513 5514 5516
5620 5611 5603 5597 5590 5582 5573 5565 5556 5549 5540 5533 5527 5522 5518 5514 5510 5507 5504 5501 5498 5495 5492 5491 5489 5488 5485 5482 5481 5480 5479 5479 5479 5480 5481 5484 5488 5492 5497 5501 5506 5512 5517 5519
5613 5606 5599 5590 5582 5575 5566 5558 5548 5541 5535 5529 5524 5519 5513 5508 5505 5503 5499 5496 5492 5490 5488 5486 5484 5483 5481 5479 5477 5476 5475 5475 5474 5477 5480 5484 5488 5492 5497 5502 5507 5512 5518 5523
5604 5598 5591 5583 5575 5568 5559 5549 5541 5534 5529 5524 5518 5514 5509 5505 5502 5499 5496 5492 5488 5486 5484 5483 5482 5481 5478 5476 5474 5474 5474 5474 5474 5477 5481 5486 5489 5493 5498 5503 5510 5516 5523 5528
5600 5592 5584 5575 5568 5561 5553 5545 5537 5529 5523 5518 5514 5509 5505 5500 5497 5495 5492 5490 5488 5486 5485 5483 5481 5479 5477 5475 5474 5474 5474 5475 5477 5480 5485 5489 5493 5498 5503 5509 5516 5523 5528 5531
5596 5588 5580 5572 5563 5554 5547 5539 5532 5525 5519 5515 5510 5505 5501 5497 5494 5492 5490 5488 5487 5487 5487 5484 5479 5477 5477 5477 5476 5476 5477 5478 5481 5485 5490 5493 5499 5505 5511 5516 5524 5530 5537 5540
5591 5583 5575 5567 5559 5549 5541 5534 5526 5520 5515 5511 5507 5503 5500 5497 5493 5491 5489 5487 5486 5485 5484 5482 5481 5480 5480 5479 5478 5480 5481 5484 5487 5492 5497 5503 5508 5513 5518 5525 5533 5539 5545 5549
5585 5578 5570 5563 5554 5545 5537 5528 5522 5517 5513 5509 5505 5502 5498 5494 5492 5490 5489 5489 5489 5487 5485 5484 5485 5484 5484 5482 5481 5485 5487 5491 5495 5500 5504 5510 5515 5521 5527 5533 5541 5548 5553 5557
5580 5573 5565 5557 5550 5542 5533 5526 5520 5515 5512 5508 5505 5501 5496 5494 5492 5490 5488 5487 5488 5486 5486 5489 5489 5487 5487 5486 5490 5492 5496 5500 5504 5508 5512 5518 5524 5529 5535 5541 5548 5554 5559 5564
5575 5567 5560 5552 5545 5537 5531 5525 5518 5513 5510 5507 5504 5500 5495 5491 5489 5488 5490 5490 5488 5487 5489 5492 5490 5490 5491 5496 5498 5501 5505 5509 5513 5517 5522 5527 5533 5538 5544 5550 5556 5561 5566 5570
5570 5563 5556 5549 5542 5536 5530 5524 5517 5512 5508 5506 5504 5499 5495 5493 5493 5490 5489 5490 5491 5491 5494 5495 5495 5497 5500 5507 5509 5512 5515 5519 5523 5528 5532 5538 5543 5547 5552 5558 5563 5568 5572 5576
5566 5558 5553 5545 5540 5535 5528 5522 5517 5513 5509 5507 5503 5499 5495 5492 5490 5491 5492 5494 5494 5496 5500 5502 5503 5505 5512 5517 5519 5522 5526 5529 5534 5538 5542 5546 5551 5555 5560 5565 5570 5575 5579 5582
5562 5557 5550 5541 5536 5529 5525 5518 5514 5510 5508 5504 5501 5499 5497 5495 5493 5493 5494 5497 5498 5500 5504 5508 5511 5514 5519 5522 5526 5530 5533 5537 5541 5545 5549 5553 5558 5562 5567 5572 5576 5581 5585 5588
5561 5556 5549 5542 5535 5527 5520 5514 5510 5507 5504 5499 5497 5498 5497 5496 5495 5495 5496 5498 5501 5504 5507 5510 5513 5516 5521 5525 5530 5534 5538 5543 5547 5551 5555 5559 5563 5568 5572 5577 5581 5585 5589 5591